Meteo Giornale » Osservazioni meteo Giappone » Fukuoka
ore: 22:00 - Osservazioni Meteo Fukuoka
Lat. 33° 35' N Lon. 130° 27' E Alt. 9 metri s.l.m.
30 °C
Sereno
Temp. 24 Ore
26 °C
34 °C
Sud
9.3 Km/h
Dew point 23 °C
Umidità 66 %
Visibilità 10 Km
Il sole sorge alle ore 05:51
Il sole tramonta alle ore 18:44
| Data e Ora | Cielo e Fenomeni | T °C | DP °C | Um. % | Pres. hPa | Vis. km | Vento km/h | |
|---|---|---|---|---|---|---|---|---|
| Oggi h: 22:00 | Sereno | 30 | 23 | 66 | 1011 | 10 | S 9.3 | |
| Oggi h: 21:30 | Sereno | 30 | 23 | 66 | 1011 | 10 | SE 13 | |
| Oggi h: 21:00 | Sereno | 30 | 24 | 70 | 1011 | 10 | N 5.5 | |
| Oggi h: 20:30 | Sereno | 31 | 24 | 66 | 1011 | 10 | S 11.1 | |
| Oggi h: 20:00 | Sereno | 30 | 24 | 70 | 1011 | 10 | E/SE 14.8 | |
| Oggi h: 19:30 | Molto Nuvoloso | 31 | 23 | 62 | 1010 | 10 | E/NE 7.4 | |
| Oggi h: 19:00 | Molto Nuvoloso | 31 | 24 | 66 | 1010 | 10 | NE 13 | |
| Oggi h: 18:30 | Molto Nuvoloso | 31 | 24 | 66 | 1010 | 10 | N/NE 14.8 | |
| Oggi h: 18:00 | Molto Nuvoloso | 32 | 24 | 62 | 1010 | 10 | NE 13 | |
| Oggi h: 17:30 | Nuvoloso | 32 | 24 | 62 | 1010 | 10 | NE 7.4 | |
| Oggi h: 17:00 | Nuvoloso | 33 | 23 | 55 | 1010 | 10 | NO 16.7 | |
| Oggi h: 16:30 | Poco Nuvoloso | 33 | 23 | 55 | 1010 | 10 | N/NO 14.8 | |
| Oggi h: 16:00 | Poco Nuvoloso | 34 | 24 | 56 | 1010 | 10 | O/NO 14.8 | |
| Oggi h: 15:30 | Nuvoloso | 33 | 24 | 59 | 1010 | 10 | N 18.5 | |
| Oggi h: 15:00 | Molto Nuvoloso | 33 | 24 | 59 | 1010 | 10 | N/NO 18.5 | |
| Oggi h: 14:30 | Molto Nuvoloso | 33 | 23 | 55 | 1010 | 10 | N/NO 20.3 | |
| Oggi h: 14:00 | Molto Nuvoloso | 33 | 23 | 55 | 1010 | 10 | N/NO 13 | |
| Oggi h: 13:30 | Molto Nuvoloso | 33 | 23 | 55 | 1011 | 10 | N 9.3 | |
| Oggi h: 13:00 | Molto Nuvoloso | 33 | 23 | 55 | 1011 | 10 | N 11.1 | |
| Oggi h: 12:30 | Molto Nuvoloso | 33 | 25 | 62 | 1011 | 10 | NO 18.5 | |
| Oggi h: 12:00 | Molto Nuvoloso | 33 | 21 | 49 | 1011 | 10 | N 5.5 | |
| Oggi h: 11:30 | Nuvoloso | 33 | 22 | 52 | 1011 | 10 | S 11.1 | |
| Oggi h: 11:00 | Nuvoloso | 33 | 22 | 52 | 1012 | 10 | N 7.4 | |
| Oggi h: 10:30 | Nuvoloso | 32 | 23 | 59 | 1012 | 10 | N 5.5 | |
| Oggi h: 10:00 | Poco Nuvoloso | 31 | 23 | 62 | 1012 | 10 | S/SO 9.3 | |
| Oggi h: 09:30 | Poco Nuvoloso | 30 | 24 | 70 | 1012 | 10 | N 5.5 | |
| Oggi h: 09:00 | Poco Nuvoloso | 30 | 25 | 74 | 1012 | 10 | N 3.7 | |
| Oggi h: 08:30 | Poco Nuvoloso | 29 | 25 | 79 | 1012 | 10 | SE 7.4 | |
| Oggi h: 08:00 | Poco Nuvoloso | 28 | 25 | 83 | 1012 | 10 | N 1.8 | |
| Oggi h: 07:30 | Poco Nuvoloso | 27 | 25 | 88 | 1012 | 10 | E/SE 7.4 | |
| Oggi h: 07:00 | Poco Nuvoloso | 26 | 24 | 88 | 1012 | 10 | E/SE 7.4 | |
| Oggi h: 06:30 | Poco Nuvoloso | 26 | 24 | 88 | 1011 | 10 | N 5.5 | |
| Oggi h: 06:00 | Poco Nuvoloso | 26 | 24 | 88 | 1011 | 10 | N 5.5 | |
| Oggi h: 05:30 | Sereno | 26 | 24 | 88 | 1011 | 10 | SE 7.4 | |
| Oggi h: 05:00 | Sereno | 26 | 24 | 88 | 1011 | 10 | N 3.7 | |
| Oggi h: 04:30 | Sereno | 26 | 24 | 88 | 1011 | 10 | S/SE 11.1 | |
| Oggi h: 04:00 | Poco Nuvoloso | 26 | 24 | 88 | 1011 | 10 | N 5.5 | |
| Oggi h: 03:30 | Molto Nuvoloso | 26 | 24 | 88 | 1011 | 10 | N 5.5 | |
| Oggi h: 03:00 | Coperto | 26 | 25 | 94 | 1011 | 10 | SE 7.4 | |
| Oggi h: 02:30 | Poco Nuvoloso | 26 | 25 | 94 | 1012 | 10 | N 5.5 | |
| Oggi h: 02:00 | Molto Nuvoloso | 26 | 24 | 88 | 1012 | 10 | N 5.5 | |
| Oggi h: 01:30 | Molto Nuvoloso | 26 | 25 | 94 | 1012 | 10 | SE 9.3 | |
| Oggi h: 01:00 | Coperto | 26 | 25 | 94 | 1012 | 10 | S/SE 9.3 | |
| Oggi h: 00:30 | Coperto | 27 | 25 | 88 | 1012 | 10 | N 5.5 | |
| Oggi h: 00:00 | Coperto | 26 | 25 | 94 | 1012 | 10 | N 5.5 | |
| Ieri h: 23:30 | Molto Nuvoloso | 26 | 25 | 94 | 1011 | 10 | N 3.7 | |
| Ieri h: 23:00 | Pioggia | 26 | 25 | 94 | 1012 | 10 | E/SE 9.3 | |



